This is the latest recevied weather packets stored in our database for station/object W5ITZ. If no packets are shown the sender has not sent any weather packets the latest 10 day(s).
| Time | Temp. | Humidity | Pressure | Rain* | Wind** | Luminosity | Snow |
|---|---|---|---|---|---|---|---|
| 1778246739 | 18.89° C | 92% | 1013.4 hPa | 0 mm | - | 84 W/m² | - |
| 1778246436 | 18.89° C | 92% | 1013.2 hPa | 0 mm | - | 74 W/m² | - |
| 1778246131 | 18.89° C | 92% | 1013.1 hPa | 0 mm | - | 55 W/m² | - |
| 1778245828 | 18.89° C | 91% | 1013.1 hPa | 1.78 mm | - | 43 W/m² | - |
| 1778245525 | 18.89° C | 91% | 1013 hPa | 1.78 mm | - | 27 W/m² | - |
| 1778245221 | 18.89° C | 91% | 1013.1 hPa | 0 mm | - | 22 W/m² | - |
| 1778244917 | 18.89° C | 90% | 1013.2 hPa | 0 mm | - | 23 W/m² | - |
| 1778244615 | 18.89° C | 90% | 1012.9 hPa | 0 mm | - | 21 W/m² | - |
| 1778244313 | 18.89° C | 89% | 1013 hPa | 0 mm | - | 20 W/m² | - |
| 1778244010 | 18.89° C | 89% | 1013.1 hPa | 0 mm | - | 18 W/m² | - |
| 1778243709 | 18.89° C | 89% | 1013.3 hPa | 0 mm | - | 12 W/m² | - |
| 1778243405 | 18.89° C | 89% | 1013.1 hPa | 0 mm | - | 11 W/m² | - |
| 1778243102 | 18.89° C | 89% | 1013.2 hPa | 0 mm | - | 9 W/m² | - |
| 1778242798 | 18.89° C | 89% | 1012.9 hPa | 0 mm | - | 10 W/m² | - |
| 1778242497 | 18.89° C | 89% | 1013.2 hPa | 0 mm | - | 7 W/m² | - |
| 1778242194 | 18.89° C | 89% | 1013.1 hPa | 0 mm | - | 7 W/m² | - |
| 1778241892 | 18.89° C | 89% | 1012.8 hPa | 0 mm | - | 5 W/m² | - |
| 1778241589 | 18.89° C | 89% | 1013.1 hPa | 0 mm | - | 5 W/m² | - |
| 1778241287 | 18.89° C | 89% | 1013.1 hPa | 0 mm | - | 2 W/m² | - |
| 1778240983 | 18.89° C | 89% | 1013.2 hPa | 0 mm | - | 1 W/m² | - |
| 1778240681 | 19.44° C | 89% | 1013.3 hPa | 0 mm | - | 1 W/m² | - |
| 1778240377 | 19.44° C | 89% | 1013.3 hPa | 0 mm | - | 0 W/m² | - |
| 1778240075 | 19.44° C | 89% | 1013.2 hPa | 0 mm | - | 0 W/m² | - |
| 1778239772 | 19.44° C | 88% | 1013 hPa | 0 mm | - | 0 W/m² | - |
| 1778239468 | 20° C | 88% | 1013.2 hPa | 0 mm | - | 0 W/m² | - |
* Rain latest hour (hover to see other rain measurements)
** Current wind speed in m/s (hover to see current wind gust speed)